Date String (YYYY-MM-DD hh:mm:ss) UTC,Instrument flags,Ambient pressure (hPa),Sample flow (lpm),Bypass flow (lpm),Sample temperature (°C),Ambient temperature (°C),ASC tube jacket temperature (°C),LED temperature (°C),Box temperature (°C),Sample RH (%),Span deviation,Mass concentration (μg/m³),Mass concentration (μg/m³),Mass concentration (μg/m³)
DateTimeUTC,F1_M11,P_M11,Q1_M11,Q2_M11,T1_M11,T2_M11,T3_M11,T4_M11,T5_M11,U1_M11,ZSPAN_M11,X0_M11,X2_M11,X1_M11
2022-05-27 01:00:00,,0825.8,5.01,0.00,29.4,27.1,00.0,38.2,31.1,13.8,0000.0,0010.84,0003.83,0002.74
2022-05-27 01:01:00,,0825.7,5.00,0.00,29.4,27.1,00.0,38.2,31.0,13.6,0000.0,0010.84,0003.86,0002.74
2022-05-27 01:02:00,,0825.7,4.99,0.00,29.3,27.3,00.0,38.2,31.1,13.4,0000.0,0010.70,0003.83,0002.72
2022-05-27 01:03:00,,0825.8,4.99,0.00,29.3,27.5,00.0,38.2,31.1,13.3,0000.0,0010.82,0003.84,0002.71
2022-05-27 01:04:00,,0825.8,5.00,0.00,29.3,27.7,00.0,38.2,31.2,13.2,0000.0,0010.85,0003.85,0002.70
2022-05-27 01:05:00,,0825.8,5.01,0.00,29.4,27.9,00.0,38.2,31.3,13.1,0000.0,0011.33,0003.84,0002.71
2022-05-27 01:06:00,,0825.9,5.01,0.00,29.4,28.1,00.0,38.2,31.3,13.2,0000.0,0012.16,0003.82,0002.70
2022-05-27 01:07:00,,0825.9,4.99,0.00,29.4,28.3,00.0,38.2,31.4,13.7,0000.0,0012.29,0003.83,0002.70
2022-05-27 01:08:00,,0825.9,4.99,0.00,29.5,28.4,00.0,38.2,31.4,14.2,0000.0,0012.12,0003.79,0002.71
2022-05-27 01:09:00,,0825.9,5.00,0.00,29.5,28.6,00.0,38.3,31.5,14.1,0000.0,0010.77,0003.71,0002.69
2022-05-27 01:10:00,,0825.9,5.00,0.00,29.6,28.7,00.0,38.3,31.6,13.7,0000.0,0010.49,0003.66,0002.67
2022-05-27 01:11:00,,0825.9,5.00,0.00,29.6,28.8,00.0,38.3,31.6,14.1,0000.0,0010.62,0003.67,0002.67
2022-05-27 01:12:00,,0825.8,5.00,0.00,29.6,28.5,00.0,38.3,31.6,14.0,0000.0,0010.56,0003.65,0002.66
2022-05-27 01:13:00,,0825.9,5.01,0.00,29.5,27.6,00.0,38.3,31.2,14.0,0000.0,0011.07,0003.69,0002.68
2022-05-27 01:14:00,,0825.8,5.01,0.00,29.5,27.1,00.0,38.2,31.1,14.3,0000.0,0011.66,0003.68,0002.67
2022-05-27 01:15:00,,0825.8,4.99,0.00,29.4,27.1,00.0,38.2,31.1,14.6,0000.0,0011.84,0003.63,0002.66
2022-05-27 01:16:00,,0825.9,4.99,0.00,29.3,27.2,00.0,38.2,31.1,14.9,0000.0,0011.98,0003.63,0002.66
2022-05-27 01:17:00,,0825.9,5.02,0.00,29.3,27.4,00.0,38.2,31.1,14.9,0000.0,0011.33,0003.65,0002.67
2022-05-27 01:18:00,,0825.9,5.01,0.00,29.3,27.6,00.0,38.2,31.2,14.7,0000.0,0010.67,0003.64,0002.67
2022-05-27 01:19:00,,0826.0,5.00,0.00,29.4,27.9,00.0,38.2,31.2,14.4,0000.0,0010.59,0003.67,0002.66
2022-05-27 01:20:00,,0825.9,5.00,0.00,29.4,28.1,00.0,38.2,31.3,14.2,0000.0,0011.13,0003.66,0002.65
2022-05-27 01:21:00,,0826.0,5.00,0.00,29.4,28.2,00.0,38.2,31.4,13.9,0000.0,0011.90,0003.67,0002.65
2022-05-27 01:22:00,,0826.0,5.00,0.00,29.5,28.4,00.0,38.2,31.4,14.4,0000.0,0012.20,0003.67,0002.64
2022-05-27 01:23:00,,0826.0,5.00,0.00,29.5,28.6,00.0,38.3,31.5,13.4,0000.0,0011.94,0003.66,0002.65
2022-05-27 01:24:00,,0826.0,4.99,0.00,29.6,28.7,00.0,38.3,31.6,13.5,0000.0,0011.84,0003.62,0002.64
2022-05-27 01:25:00,,0826.0,5.00,0.00,29.6,28.8,00.0,38.3,31.6,13.7,0000.0,0011.41,0003.64,0002.65
2022-05-27 01:26:00,,0826.0,5.01,0.00,29.7,28.8,00.0,38.3,31.6,13.3,0000.0,0011.61,0003.67,0002.66
2022-05-27 01:27:00,,0826.0,5.00,0.00,29.6,27.9,00.0,38.3,31.4,13.1,0000.0,0011.36,0003.65,0002.66
2022-05-27 01:28:00,,0826.0,5.01,0.00,29.5,27.2,00.0,38.2,31.2,13.1,0000.0,0010.87,0003.63,0002.65
2022-05-27 01:29:00,,0826.0,4.99,0.00,29.4,27.1,00.0,38.2,31.1,13.2,0000.0,0011.40,0003.61,0002.64
2022-05-27 01:30:00,,0826.0,4.99,0.00,29.4,27.2,00.0,38.2,31.1,13.8,0000.0,0010.95,0003.57,0002.65
2022-05-27 01:31:00,,0826.1,5.01,0.00,29.4,27.3,00.0,38.2,31.1,14.2,0000.0,0010.78,0003.61,0002.65
2022-05-27 01:32:00,,0826.0,5.00,0.00,29.4,27.5,00.0,38.2,31.2,14.3,0000.0,0010.55,0003.64,0002.66
2022-05-27 01:33:00,,0826.0,4.99,0.00,29.4,27.7,00.0,38.2,31.2,13.9,0000.0,0010.40,0003.70,0002.67
2022-05-27 01:34:00,,0826.0,5.00,0.00,29.4,28.0,00.0,38.2,31.3,13.6,0000.0,0010.72,0003.70,0002.69
2022-05-27 01:35:00,,0826.1,4.99,0.00,29.4,28.1,00.0,38.2,31.4,13.3,0000.0,0010.48,0003.71,0002.70
2022-05-27 01:36:00,,0826.0,5.00,0.00,29.5,28.3,00.0,38.3,31.4,13.4,0000.0,0011.08,0003.67,0002.70
2022-05-27 01:37:00,,0826.0,5.00,0.00,29.5,28.5,00.0,38.3,31.5,13.3,0000.0,0010.74,0003.67,0002.71
2022-05-27 01:38:00,,0826.0,5.00,0.00,29.6,28.6,00.0,38.3,31.5,13.1,0000.0,0010.56,0003.70,0002.74
2022-05-27 01:39:00,,0826.0,5.00,0.00,29.6,28.8,00.0,38.3,31.6,12.9,0000.0,0010.69,0003.72,0002.75
2022-05-27 01:40:00,,0826.1,5.01,0.00,29.7,28.9,00.0,38.4,31.7,12.7,0000.0,0010.60,0003.73,0002.77
2022-05-27 01:41:00,,0826.1,4.98,0.00,29.7,28.4,00.0,38.3,31.5,12.5,0000.0,0010.65,0003.75,0002.77
2022-05-27 01:42:00,,0826.1,5.01,0.00,29.5,27.3,00.0,38.3,31.2,12.4,0000.0,0010.59,0003.73,0002.79
2022-05-27 01:43:00,,0826.1,4.99,0.00,29.5,27.0,00.0,38.2,31.1,12.4,0000.0,0010.69,0003.74,0002.79
2022-05-27 01:44:00,,0826.2,5.00,0.00,29.4,27.0,00.0,38.2,31.0,12.4,0000.0,0010.37,0003.72,0002.80
2022-05-27 01:45:00,,0826.1,5.01,0.00,29.3,27.1,00.0,38.2,31.0,12.4,0000.0,0010.15,0003.73,0002.78
2022-05-27 01:46:00,,0826.1,4.99,0.00,29.3,27.3,00.0,38.2,31.1,12.5,0000.0,0010.09,0003.75,0002.79
2022-05-27 01:47:00,,0826.1,5.00,0.00,29.3,27.6,00.0,38.2,31.2,12.5,0000.0,0009.47,0003.82,0002.80
2022-05-27 01:48:00,,0826.1,4.99,0.00,29.4,27.8,00.0,38.2,31.2,12.5,0000.0,0009.45,0003.82,0002.78
2022-05-27 01:49:00,,0826.1,5.00,0.00,29.4,28.0,00.0,38.2,31.3,12.4,0000.0,0010.03,0003.80,0002.77
2022-05-27 01:50:00,,0826.1,5.00,0.00,29.4,28.2,00.0,38.2,31.4,12.4,0000.0,0010.09,0003.82,0002.75
2022-05-27 01:51:00,,0826.1,5.00,0.00,29.5,28.4,00.0,38.2,31.4,12.3,0000.0,0009.97,0003.84,0002.76
2022-05-27 01:52:00,,0826.2,5.00,0.00,29.5,28.5,00.0,38.3,31.5,12.3,0000.0,0011.02,0003.89,0002.76
2022-05-27 01:53:00,,0826.2,5.01,0.00,29.6,28.7,00.0,38.3,31.5,12.5,0000.0,0010.79,0003.92,0002.76
2022-05-27 01:54:00,,0826.2,5.00,0.00,29.6,28.8,00.0,38.3,31.6,15.5,0000.0,0010.17,0003.90,0002.76
2022-05-27 01:55:00,,0826.2,5.00,0.00,29.6,28.9,00.0,38.4,31.7,17.7,0000.0,0010.78,0003.89,0002.76
2022-05-27 01:56:00,,0826.3,5.00,0.00,29.6,28.2,00.0,38.3,31.5,16.3,0000.0,0011.58,0003.90,0002.76
2022-05-27 01:57:00,,0826.3,4.99,0.00,29.5,27.2,00.0,38.2,31.2,15.8,0000.0,0012.13,0003.88,0002.78
2022-05-27 01:58:00,,0826.2,5.01,0.00,29.5,26.9,00.0,38.2,31.1,15.8,0000.0,0011.84,0003.85,0002.78
2022-05-27 01:59:00,,0826.2,4.99,0.00,29.4,26.9,00.0,38.2,31.0,15.6,0000.0,0011.78,0003.84,0002.80
